星链-30333 (STARLINK-30333 )

导读 | 豆包AI

STARLINK-30333是美国SpaceX星链星座中的一颗低轨通信卫星,于2023年8月27日发射升空。星链星座旨在为全球提供高速低时延宽带互联网服务,尤其覆盖基础设施匮乏的偏远区域。该卫星运行在约550公里的近地轨道,采用相控阵天线与OFDM传输技术,搭配霍尔推进系统实现轨道机动与自主离轨,最终将在大气层完全销毁,助力星链实现全球互联的网络覆盖目标。

基本信息
目录编号:
57702
目录名称:
STARLINK-30333
国际标识:
2023-129E
轨道中心:
EARTH
卫星名称:
星链-30333
卫星全名:
星链-30333 (STARLINK-30333 )
卫星状态:
在轨 (已飞行977 天)
发射日期:
2023-08-27 UTC
国别 :
美国 (US)
星等 :
--
轨道信息
数据来源 国际轨道数据
星历时间: 2026-04-30T12:40:46+0800
11小时前
查看轨道信息
半长轴: 6861.186km
偏心率: 0.0000893
轨道倾角: 42.998°
近地点辐角 259.140°
升交点赤经 186.690°
平近点角 100.935°
近地点: 482.436km
远地点: 483.662km
周期: 94.267分钟
每日圈数: 15.275801
详细信息
固有亮度:
5
最大亮度:
0.3
卫星平台:
Starlink v2.0 mini
覆盖范围:
全球
运营商:
太空探索技术公司
运营商所在国:
美国
制造商(研发单位):
太空探索技术公司
制造商所在国:
美国
使用方式:
暂无
卫星简介
星链(Starlink)计划是由太空探索技术公司(SpaceX)提出的一个巨型低轨卫星互联网星座项目,计划在2019年至2024年间在太空搭建由约1.2万颗卫星组成的“星链”网络,其中1584颗将部署在地球上空550千米处的近地轨道,并从2020年开始工作。该卫星仍在工作。
2D轨道图
3D轨道图
轨道高度分析图
轨道倾角分析图
轨道综合分析图
查看轨道综合分析图